Location: Huisseau
(47.5933°N, 1.4533°E)
Time: 19:06:19
(UTC+00:00)

CENTAUR R/B - Pass Details

Date: 24 November 2025
Orbit: 633 x 1547 km, 63.4° (Epoch: 06 December)

Event Time Altitude Azimuth Distance (km) Brightness Sun altitude
Exits shadow 03:43:49 65° 187° (S) 1,604 3.4 -34.6°
Drops below altitude 10° 03:51:56 10° 153° (SSE) 3,717 5.7 -33.3°
Sets 03:55:02 0° 152° (SSE) 4,700 6.3 -32.7°
